Location: Taukkyan
(23.1052°N, 94.0030°E)
Time: 23:13:09
(UTC+00:00)

SJ 16-02 - Pass Details

Date: 06 July 2020
Orbit: 606 x 617 km, 75.0° (Epoch: 05 August)

Event Time Altitude Azimuth Distance (km) Brightness Sun altitude
Rises 13:29:21 0° 325° (NW) 2,877 6.1 -12.1°
Reaches altitude 10° 13:32:05 10° 309° (NW) 1,967 5.4 -12.6°
Maximum altitude 13:35:15 20° 262° (W) 1,431 3.9 -13.3°
Drops below altitude 10° 13:38:25 10° 215° (SW) 1,956 4.0 -13.9°
Sets 13:41:08 0° 198° (SSW) 2,855 4.6 -14.4°
